This demonstration page uses our WeatherBlox Daily Observations layout. Learn more.

Left ArrowRight Arrow

39.12711, -84.51439

Hourly Observations for January 15, 2022

Temp ( °F °C ) Dew Point ( °F °C ) Humidity (%) Winds ( mph kmh ) Pressure ( in mb ) Visibility ( mi km ) Precip ( " mm )
12:07 am 00:07 Cloudy 33 0.6 28 -2.2 82 82 NNE 9 15 30.21 1023 10 16 0.00 0.00
12:53 am 00:53 Cloudy 33 0.6 27 -2.8 78 78 NE 9 15 30.19 1022 10 16 0.00 0.00
1:53 am 01:53 Cloudy 32 0 25 -3.9 75 75 NNE 10 17 30.20 1023 10 16 0.00 0.00
2:53 am 02:53 Cloudy 31 -0.6 24 -4.4 76 76 NNE 12 19 30.21 1023 10 16 0.00 0.00
3:53 am 03:53 Cloudy 31 -0.6 22 -5.6 69 69 NE 13 20 30.22 1023 10 16 0.00 0.00
4:53 am 04:53 Cloudy 29 -1.7 22 -5.6 75 75 NNE 10 17 30.23 1024 10 16 0.00 0.00
5:53 am 05:53 Cloudy 27 -2.8 21 -6.1 78 78 NE 12 19 30.25 1025 10 16 0.00 0.00
6:51 am 06:51 Cloudy 27 -3 21 -6 80 80 NNE 9 15 30.29 1026 10 16 0.00 0.00
6:53 am 06:53 Cloudy 27 -2.8 21 -6.1 78 78 NE 12 19 30.27 1025 10 16 0.00 0.00
7:53 am 07:53 Cloudy 27 -2.8 21 -6.1 78 78 NNE 8 13 30.29 1026 10 16 0.00 0.00
8:53 am 08:53 Cloudy 27 -2.8 21 -6.1 78 78 NNE 13 20 30.29 1026 10 16 0.00 0.00
9:53 am 09:53 Cloudy 28 -2.2 20 -6.7 72 72 NE 13 20 30.29 1026 10 16 0.00 0.00
10:53 am 10:53 Cloudy 29 -1.7 21 -6.1 72 72 ENE 8 13 30.30 1026 10 16 0.00 0.00
11:53 am 11:53 Cloudy 30 -1.1 21 -6.1 69 69 NE 12 19 30.31 1026 10 16 0.00 0.00
12:53 pm 12:53 Cloudy 31 -0.6 21 -6.1 67 67 ENE 8 13 30.29 1026 10 16 0.00 0.00
1:53 pm 13:53 Cloudy 33 0.6 22 -5.6 64 64 NNE 13 20 30.26 1025 10 16 0.00 0.00
2:53 pm 14:53 Mostly Cloudy 34 1.1 22 -5.6 61 61 ENE 12 19 30.25 1024 10 16 0.00 0.00
3:53 pm 15:53 Cloudy 31 -0.6 20 -6.7 64 64 NE 12 19 30.25 1024 10 16 0.00 0.00
4:53 pm 16:53 Mostly Cloudy 30 -1.1 18 -7.8 61 61 NE 12 19 30.26 1025 10 16 0.00 0.00
5:53 pm 17:53 Clear 28 -2.2 18 -7.8 66 66 ENE 8 13 30.26 1025 10 16 0.00 0.00
6:53 pm 18:53 Clear 27 -2.8 17 -8.3 66 66 NNE 7 11 30.25 1025 10 16 0.00 0.00
7:53 pm 19:53 Clear 26 -3.3 15 -9.4 63 63 NE 9 15 30.25 1025 10 16 0.00 0.00
8:53 pm 20:53 Clear 25 -3.9 14 -10 63 63 NE 9 15 30.24 1024 10 16 0.00 0.00
9:53 pm 21:53 Clear 24 -4.4 13 -10.6 62 62 ENE 7 11 30.24 1024 10 16 0.00 0.00
10:53 pm 22:53 Clear 24 -4.4 12 -11.1 60 60 NE 8 13 30.22 1023 10 16 0.00 0.00
11:53 pm 23:53 Clear 24 -4.4 12 -11.1 60 60 NE 8 13 30.21 1023 10 16 0.00 0.00

Powered by AerisWeather